Terminal Aerodrome Forecast
Issued by NWS Columbia, SC

Home | Current Version | Previous Version | Text Only | Print | Product List | Glossary On
Versions: 1 2 3 4 5 6 7 8 9 10 11 12 13 14 15 16 17 18 19 20 21 22 23 24 25 26 27 28 29 30 31 32 33 34 35 36 37 38 39 40 41 42 43 44 45 46 47 48 49 50
915
FTAK31 PAJN 181136
TAFAGS
TAF
PAGS 181136Z 1812/1912 33003KT P6SM VCSH BKN040 OVC060
     FM181600 33003KT 6SM -SN BKN030 OVC040
     FM182000 33003KT P6SM -RASN SCT015 BKN035 OVC050
     FM190000 33005KT 4SM -RA BR BKN015 OVC025
     FM190600 14010KT 4SM -SHRA BR OVC015
      AMD LTD TO CLD VIS AND WIND=

USA.gov is the U.S. government's official web portal to all federal, state and local government web resources and services.